Wind_Speed
17 18 20 19 17 15 16 17 18 17 18 19 18 17 18 18 16 16 15 14 15 16 21 22 21 20 20 19 22 24 23 21 20 22 21 21 22 21 22 23 23 24 24
14 16 19 22 21 17 17 17 18 20 21 21 20 20 20 19 17 17 18 19 19 16 16 17 18 17 18 18 18 22 25 24 22 23 24 24 25 26 25 25 26 27 27
10 15 17 18 22 21 22 21 20 21 23 24 23 22 21 21 20 20 20 19 20 19 18 18 19 17 18 16 15 18 21 22 24 25 27 27 27 29 28 28 29 29 29
12 15 16 20 22 20 21 19 19 21 22 24 25 24 23 22 22 21 22 22 21 22 20 18 20 20 20 18 18 18 19 21 22 23 25 27 28 30 29 30 29 30 30
16 15 18 20 20 18 20 20 18 17 21 23 24 23 23 23 23 23 23 24 23 23 22 21 21 20 21 20 20 22 23 24 25 25 26 28 30 32 32 31 30 31 32
23 19 21 22 20 19 21 21 23 22 22 21 23 24 23 22 22 21 22 24 23 25 26 24 21 20 21 21 21 23 24 25 26 25 27 29 32 31 27 26 27 28 29
24 23 22 26 29 26 23 24 19 24 25 22 18 20 22 22 21 19 21 22 23 28 30 27 23 22 22 22 23 25 26 26 21 22 19 17 14 19 22 24 24 25 27
24 26 29 31 23 31 30 24 17 22 23 22 19 19 21 23 21 22 23 24 24 27 22 28 23 19 18 20 23 23 17 17 17 18 18 19 20 21 23 25 27 27 27
30 31 34 30 21 19 19 22 22 22 21 22 21 23 22 27 28 27 26 24 20 18 14 11 13 16 16 12 9 9 11 15 16 18 20 22 23 24 26 27 27 27 26
37 35 37 31 24 24 26 31 25 28 22 22 21 19 21 23 25 28 25 22 20 14 15 17 18 16 15 12 12 14 15 18 20 22 25 27 27 26 26 25 25 24 24
41 36 30 28 29 28 29 23 30 30 27 26 25 25 22 22 25 23 21 18 21 16 17 18 17 15 14 15 16 18 20 23 26 28 31 29 25 24 24 25 24 23 21
38 31 30 29 28 28 31 27 28 30 25 25 26 28 26 27 28 26 22 17 18 19 18 17 16 17 18 19 20 22 24 26 28 31 30 24 22 23 22 22 21 19 16
44 40 39 31 29 27 26 23 23 25 25 27 28 28 26 26 26 27 22 19 19 18 18 18 18 21 22 23 25 25 27 29 30 30 25 23 22 21 20 19 17 16 14
43 39 39 36 34 33 29 26 25 25 27 29 28 27 26 25 22 19 21 20 19 19 20 21 22 23 25 25 25 27 29 30 31 27 24 24 22 22 19 18 16 15 13
47 44 43 41 40 40 35 32 32 33 30 29 28 26 26 23 22 20 20 21 21 21 23 24 25 26 24 25 27 30 31 30 30 27 25 24 23 21 19 19 19 16 15
55 51 48 47 41 43 36 33 32 36 35 29 27 27 28 26 26 27 24 23 24 23 24 25 25 25 25 28 31 32 31 30 29 27 25 24 23 22 20 20 19 18 19
57 56 57 53 44 39 33 33 36 42 39 26 25 27 28 26 26 25 24 24 23 24 25 26 27 27 30 32 33 32 31 29 28 26 25 24 24 22 22 22 21 20 20
55 51 66 50 47 41 33 27 33 32 20 25 26 26 31 30 27 26 25 24 25 26 26 27 28 31 33 33 33 33 33 31 29 26 25 24 23 22 24 24 22 22 22
58 58 43 48 45 39 38 36 31 31 19 22 30 27 34 34 30 28 27 27 26 26 26 28 30 31 32 34 34 34 32 30 28 24 24 23 23 24 25 24 23 24 25
52 45 39 42 40 38 39 36 31 27 28 28 28 33 35 37 31 31 29 28 26 25 26 27 29 30 32 32 32 32 32 28 25 23 23 24 24 25 25 25 26 27 27
45 48 48 50 47 43 42 36 35 31 28 28 34 38 37 37 33 32 29 29 27 25 25 28 30 30 29 29 29 30 26 24 23 24 24 25 25 25 25 26 28 29 30
46 43 44 39 35 41 42 40 39 35 30 28 33 35 36 36 37 35 28 27 25 24 25 27 27 28 28 29 24 24 24 22 23 24 24 24 24 24 25 27 28 29 30
50 48 46 43 42 42 42 41 40 41 39 42 40 35 39 37 36 37 31 26 25 24 26 26 25 25 26 27 22 22 24 25 25 26 26 27 28 28 29 29 30 31 32
41 43 44 42 41 41 43 44 43 43 42 44 42 40 39 37 38 36 30 30 28 26 26 27 26 24 25 26 26 26 28 29 29 30 29 30 31 31 32 33 33 34 35
41 39 39 41 42 42 44 47 45 41 52 46 42 36 34 35 38 33 28 30 29 29 29 30 30 31 32 29 31 32 32 34 35 35 35 36 35 34 35 37 40 41 43
34 36 33 36 41 45 43 44 44 49 39 37 35 33 36 35 37 34 29 30 29 30 31 31 32 33 36 36 35 36 37 39 39 40 40 39 41 42 41 43 46 47 48
Wind_Direction
263 261 250 242 240 242 242 243 239 232 230 219 221 227 227 230 233 236 235 240 247 244 237 240 244 245 245 249 256 251 247 245 249 256 259 264 269 274 279 280 281 280 281
267 261 253 252 246 243 241 245 245 237 233 231 227 227 229 232 232 233 236 240 246 240 239 237 243 243 247 252 263 255 245 244 247 255 259 264 267 270 270 273 276 278 280
274 260 257 252 248 242 242 247 248 245 238 236 234 232 232 232 233 236 238 239 238 246 242 240 244 240 248 250 255 252 246 247 249 254 261 262 264 268 272 276 277 278 279
242 257 261 253 249 245 238 245 245 243 245 242 243 243 242 242 242 241 241 242 241 237 242 242 245 239 241 244 248 252 250 247 247 251 258 265 267 269 270 272 276 276 278
239 241 249 258 257 246 239 240 243 248 248 249 249 247 247 247 245 243 244 244 243 245 248 245 246 243 244 250 250 253 256 258 259 259 261 265 269 271 274 277 275 274 277
262 242 248 246 249 252 251 248 249 251 254 253 244 240 243 241 243 246 247 251 250 248 246 244 245 252 254 254 258 260 262 264 265 268 268 264 264 267 276 285 283 281 285
257 251 255 252 248 237 235 230 251 245 251 255 240 229 231 241 248 253 259 262 259 256 253 249 251 256 262 265 265 266 269 272 268 279 292 298 296 287 291 292 291 289 287
242 243 256 265 275 233 247 235 244 242 245 253 248 241 241 245 251 265 270 272 276 281 276 246 249 263 268 270 277 265 268 281 285 292 298 299 299 296 295 295 296 297 296
250 247 255 262 267 279 232 231 218 230 239 237 243 248 256 253 252 256 262 268 275 290 297 280 276 274 265 272 294 309 275 283 290 296 302 303 303 302 301 301 301 299 297
242 252 256 253 254 250 243 243 223 223 225 222 228 239 238 245 244 246 255 263 260 261 278 276 275 270 261 274 282 289 292 293 297 301 303 299 295 297 299 300 301 300 297
235 242 242 249 253 254 258 251 228 225 223 228 233 231 232 240 244 246 250 259 247 249 266 265 268 268 264 275 283 290 293 298 301 303 302 297 293 295 297 297 298 300 301
232 233 247 247 246 243 245 238 227 229 228 230 230 230 226 230 235 237 235 244 256 260 263 265 267 264 266 276 282 287 290 295 299 302 300 296 295 294 295 298 299 294 291
232 248 248 247 240 237 244 234 230 225 227 227 229 230 234 239 240 234 230 242 258 256 260 260 262 265 268 272 278 283 289 293 296 301 296 296 294 289 292 291 286 285 285
241 234 242 245 233 225 225 229 228 230 224 230 231 231 229 232 238 217 228 253 255 256 259 262 264 266 268 270 274 284 289 291 295 294 290 291 288 290 291 286 283 274 281
231 237 241 240 238 229 225 228 226 229 230 230 229 230 231 224 215 233 250 251 252 257 262 264 265 266 266 271 278 283 287 291 293 291 285 284 283 286 287 285 282 275 276
234 233 235 235 238 230 227 235 240 243 238 231 231 232 229 222 232 243 243 242 245 252 257 260 262 264 269 275 283 288 289 289 289 289 283 281 283 286 283 281 277 273 280
228 234 235 233 231 236 232 233 249 254 246 225 236 236 236 227 227 235 237 238 247 253 254 257 261 266 274 283 286 285 285 284 284 282 277 277 279 278 277 275 273 274 279
230 234 231 225 234 235 246 247 269 274 281 220 234 240 245 237 228 228 234 239 244 250 256 261 266 273 278 279 279 280 282 281 281 274 270 271 274 274 274 273 274 277 279
232 240 238 218 231 236 246 254 259 273 276 258 236 240 247 246 240 236 237 242 246 252 258 264 271 275 277 279 280 279 278 278 275 269 268 268 271 269 267 267 271 273 275
233 233 235 233 234 240 251 256 256 254 259 265 243 244 249 249 247 246 244 248 251 255 261 267 270 276 282 284 282 280 278 275 270 268 269 271 269 267 268 268 269 272 275
231 229 230 237 240 243 245 244 245 248 258 271 236 234 245 253 255 252 252 254 254 258 265 268 272 277 280 282 283 280 273 269 270 271 270 269 270 272 272 273 274 277 280
226 227 228 227 229 235 238 239 243 242 250 254 238 230 237 246 254 253 249 253 257 257 261 269 274 276 280 281 280 274 269 267 266 266 264 265 268 272 275 277 279 281 284
226 230 235 241 239 235 235 236 240 238 241 246 244 241 232 240 251 253 252 251 251 260 264 263 264 273 283 277 267 262 263 265 264 267 275 281 282 280 279 280 282 283 282
216 223 228 230 229 230 233 237 235 243 238 240 239 239 226 236 250 245 244 248 252 260 261 256 262 270 274 267 262 259 258 261 266 269 270 270 272 275 278 277 276 276 277
214 216 220 221 224 228 230 232 232 232 235 236 233 219 225 242 244 244 240 246 256 265 263 261 264 266 269 265 260 257 259 260 260 263 266 270 273 278 278 279 280 281 283
206 207 214 221 223 226 233 231 234 230 223 216 209 217 232 236 248 246 240 248 255 263 261 261 265 267 268 267 262 260 261 262 262 262 264 268 272 273 276 279 281 284 285
Height
5877 5878 5879 5880 5881 5881 5883 5885 5886 5888 5891 5893 5895 5898 5900 5901 5903 5905 5907 5909 5909 5911 5914 5916 5918 5919 5920 5920 5921 5922 5922 5924 5924 5923 5923 5922 5922 5922 5922 5922 5922 5922 5921
5872 5874 5875 5877 5878 5879 5879 5882 5884 5886 5888 5889 5892 5895 5896 5897 5899 5901 5903 5905 5907 5908 5909 5911 5913 5915 5915 5916 5916 5916 5916 5918 5919 5918 5917 5917 5916 5916 5916 5916 5915 5915 5914
5869 5870 5872 5872 5874 5875 5876 5878 5881 5884 5885 5887 5889 5890 5892 5894 5895 5897 5899 5901 5902 5903 5905 5906 5907 5909 5909 5910 5911 5912 5911 5912 5913 5913 5912 5912 5910 5909 5909 5909 5909 5909 5909
5866 5866 5867 5868 5869 5871 5872 5874 5876 5879 5881 5883 5885 5887 5889 5890 5892 5893 5895 5895 5896 5898 5900 5901 5902 5902 5903 5904 5905 5906 5906 5906 5906 5907 5907 5906 5906 5905 5905 5904 5904 5902 5901
5862 5862 5863 5864 5865 5866 5867 5869 5871 5873 5876 5878 5880 5883 5885 5886 5887 5889 5890 5890 5891 5894 5895 5895 5896 5897 5897 5898 5900 5900 5901 5901 5901 5901 5901 5900 5899 5898 5897 5897 5897 5895 5893
5857 5857 5857 5859 5859 5860 5861 5865 5868 5868 5869 5872 5873 5875 5879 5881 5883 5884 5885 5886 5888 5889 5890 5889 5890 5891 5892 5893 5893 5894 5895 5896 5896 5896 5895 5893 5892 5891 5890 5889 5888 5886 5885
5849 5849 5848 5848 5851 5849 5850 5855 5860 5862 5865 5866 5866 5869 5872 5875 5878 5880 5881 5882 5884 5884 5884 5884 5884 5885 5886 5887 5887 5887 5888 5888 5889 5888 5888 5885 5885 5884 5883 5882 5880 5879 5877
5841 5842 5841 5841 5846 5848 5848 5851 5854 5857 5860 5862 5863 5864 5867 5869 5871 5874 5875 5875 5877 5877 5874 5876 5877 5878 5880 5880 5880 5880 5882 5883 5883 5882 5881 5880 5879 5878 5876 5874 5872 5871 5869
5834 5834 5833 5836 5838 5841 5841 5841 5842 5850 5854 5855 5857 5859 5861 5862 5865 5866 5868 5869 5870 5872 5871 5870 5871 5873 5875 5874 5874 5874 5876 5877 5877 5876 5874 5873 5871 5870 5867 5866 5863 5862 5860
5824 5826 5824 5827 5830 5830 5832 5837 5833 5841 5844 5847 5849 5851 5853 5853 5855 5857 5859 5860 5862 5863 5865 5866 5868 5869 5868 5868 5869 5870 5870 5870 5870 5869 5867 5866 5864 5862 5860 5858 5856 5854 5852
5813 5818 5818 5820 5822 5823 5821 5828 5832 5834 5835 5839 5840 5842 5845 5846 5847 5849 5851 5852 5854 5856 5859 5860 5861 5861 5862 5863 5863 5864 5864 5864 5862 5861 5859 5858 5856 5854 5853 5851 5848 5846 5844
5803 5809 5811 5814 5815 5816 5819 5823 5826 5822 5829 5830 5832 5835 5834 5836 5837 5839 5841 5844 5847 5850 5851 5852 5853 5855 5856 5858 5858 5858 5857 5857 5855 5854 5852 5850 5849 5848 5845 5843 5841 5839 5838
5794 5798 5801 5803 5807 5804 5805 5810 5813 5817 5821 5824 5824 5825 5827 5830 5830 5832 5834 5838 5841 5843 5844 5846 5847 5849 5851 5852 5853 5852 5851 5850 5848 5845 5844 5843 5843 5842 5839 5837 5835 5833 5832
5783 5785 5791 5794 5798 5800 5801 5803 5807 5810 5813 5817 5818 5818 5819 5822 5825 5826 5831 5833 5834 5836 5839 5841 5841 5843 5844 5845 5846 5845 5844 5843 5842 5839 5838 5837 5836 5835 5833 5831 5829 5828 5827
5773 5777 5781 5785 5788 5790 5795 5800 5801 5803 5805 5807 5810 5812 5815 5816 5818 5821 5824 5825 5827 5829 5833 5834 5835 5836 5837 5838 5838 5837 5837 5836 5835 5833 5832 5831 5829 5827 5826 5825 5823 5823 5822
5761 5766 5772 5774 5777 5781 5784 5790 5795 5796 5798 5800 5802 5806 5809 5809 5812 5815 5816 5818 5820 5822 5825 5827 5828 5829 5830 5831 5831 5830 5829 5829 5828 5825 5825 5824 5823 5821 5820 5819 5818 5818 5817
5750 5755 5760 5765 5771 5772 5772 5783 5787 5787 5790 5794 5797 5800 5804 5803 5804 5808 5810 5811 5814 5816 5818 5820 5822 5823 5824 5823 5823 5822 5821 5820 5818 5817 5817 5817 5816 5814 5813 5813 5812 5812 5811
5737 5742 5747 5756 5762 5767 5768 5776 5780 5781 5781 5785 5790 5793 5798 5799 5798 5799 5802 5804 5806 5808 5811 5814 5815 5816 5815 5815 5813 5812 5812 5811 5810 5809 5808 5809 5808 5807 5807 5806 5806 5805 5804
5726 5732 5735 5744 5755 5759 5763 5768 5773 5777 5778 5782 5783 5784 5791 5794 5795 5795 5796 5797 5799 5801 5804 5805 5807 5808 5807 5806 5805 5804 5803 5802 5802 5801 5801 5801 5800 5799 5799 5799 5799 5798 5797
5716 5725 5732 5738 5744 5747 5753 5757 5761 5764 5769 5773 5773 5777 5784 5789 5789 5790 5791 5791 5792 5793 5795 5797 5798 5799 5799 5799 5798 5796 5796 5795 5794 5794 5794 5794 5793 5793 5793 5792 5791 5790 5788
5702 5711 5717 5725 5732 5738 5742 5747 5752 5757 5758 5758 5762 5767 5776 5781 5783 5784 5785 5786 5786 5786 5788 5789 5790 5790 5789 5790 5789 5788 5787 5788 5788 5788 5788 5788 5787 5786 5786 5785 5783 5782 5780
5693 5700 5707 5714 5720 5726 5731 5736 5741 5746 5748 5751 5755 5758 5765 5771 5774 5775 5775 5776 5777 5777 5778 5780 5781 5781 5780 5781 5780 5780 5781 5781 5781 5781 5780 5779 5778 5777 5777 5776 5774 5773 5771
5682 5689 5696 5703 5709 5714 5719 5724 5730 5734 5739 5742 5746 5748 5754 5760 5764 5767 5767 5767 5768 5768 5769 5771 5772 5772 5772 5773 5773 5772 5773 5773 5773 5774 5775 5774 5771 5769 5767 5766 5765 5764 5761
5673 5680 5686 5691 5697 5702 5707 5712 5716 5720 5725 5729 5734 5737 5742 5750 5754 5756 5757 5759 5760 5759 5761 5762 5762 5763 5763 5764 5764 5763 5762 5763 5764 5763 5762 5760 5759 5758 5757 5755 5752 5750 5747
5664 5670 5675 5680 5685 5690 5694 5698 5703 5708 5712 5716 5722 5728 5735 5740 5744 5745 5746 5749 5752 5752 5752 5753 5753 5755 5756 5755 5754 5754 5753 5753 5751 5750 5750 5749 5749 5749 5747 5745 5742 5740 5737
5656 5661 5666 5671 5674 5677 5682 5686 5690 5695 5701 5708 5715 5721 5727 5729 5734 5736 5736 5741 5741 5743 5743 5743 5744 5745 5747 5746 5744 5743 5743 5743 5742 5740 5739 5739 5737 5734 5733 5732 5730 5728 5725